D-SAT

Last updated on Mon Nov 15 2021 00:03:18 GMT+0000 (Coordinated Universal Time)

1 42794U 17036AF 21318.48625048 .00000480 00000-0 45933-4 0 9995 2 42794 97.4564 330.3815 0126691 84.5432 277.0224 14.91771855239429
UTC large
Height (km)
Speed (km/s)
/
Latitude / Longitude
Inclination (degrees)
Orbital Period (minutes)
Azimuth
Elevation
Range (km)
Doppler Factor

Next 0 passes for location: London (51.5072 / 0.1276)

Sorry there are no passes over London.